Temperature
18 19 19 20 20 20 19 18 19 19 18 19 18 18 18 19 19 20 20 20 21 21 21 21 21 21 21 21 21 21 21 20 20 20 19 19 19 19 19 19 19 19 18 18
18 19 19 19 20 20 20 19 19 19 18 18 18 18 18 18 18 19 19 20 20 21 21 21 21 21 20 20 20 20 20 20 20 20 19 19 19 19 19 19 19 19 18 18
16 17 19 18 19 19 19 19 18 19 18 17 17 17 17 18 18 18 19 19 19 20 20 20 20 20 20 20 20 20 20 20 19 19 19 19 19 19 19 19 19 18 18 18
14 17 18 18 18 18 18 17 17 17 17 17 16 17 17 18 18 18 18 19 19 20 20 20 20 20 19 19 19 19 19 19 19 19 19 19 18 18 18 18 18 18 18 18
13 15 16 18 18 17 17 17 16 16 16 16 16 16 17 17 18 18 19 19 19 19 19 19 19 19 19 19 19 19 19 18 18 18 18 18 18 18 18 18 18 18 17 17
13 15 16 17 17 17 17 16 16 15 15 15 16 15 16 17 17 18 18 19 19 19 19 19 19 19 18 18 18 18 18 18 18 18 17 17 17 17 17 17 17 17 17 17
13 14 15 16 16 17 17 16 16 16 16 16 15 16 16 17 17 17 18 18 18 18 18 18 18 18 18 18 17 18 18 18 17 17 17 17 17 17 17 17 17 17 16 16
12 14 15 15 15 15 15 16 16 16 16 16 16 16 16 17 17 17 17 17 18 18 18 18 18 18 17 17 17 17 17 17 17 17 16 16 16 16 16 16 16 16 16 16
12 13 13 14 14 15 16 16 16 16 16 16 16 16 16 16 17 17 17 17 17 17 17 17 17 17 17 17 16 16 16 16 16 16 16 16 16 16 15 15 15 15 15 15
11 12 13 14 15 15 16 16 16 16 16 16 16 16 16 16 16 17 17 17 17 17 17 17 17 16 16 16 16 16 15 15 15 15 15 15 15 15 15 14 14 14 14 14
11 12 13 14 15 15 16 16 16 16 16 16 16 16 16 16 16 16 16 16 16 16 16 16 16 16 16 15 15 15 15 15 15 15 15 14 14 14 14 14 14 14 14 14
12 13 12 14 15 15 15 15 15 15 15 15 15 15 15 15 15 15 15 15 15 15 15 15 15 15 15 15 15 15 14 14 14 14 14 14 14 14 14 14 14 13 13 13
14 14 14 14 14 15 15 15 15 15 15 14 15 15 15 15 15 15 15 15 15 15 15 14 14 14 14 14 14 14 14 14 14 14 13 13 13 13 13 13 13 13 13 13
14 14 13 14 14 14 14 14 14 14 14 14 14 14 14 14 14 14 14 14 14 14 14 14 14 14 14 14 14 13 13 13 13 13 13 13 13 12 12 12 12 12 12 12
14 14 13 13 13 14 14 14 14 14 14 14 14 14 14 14 14 13 14 13 13 14 14 14 14 13 13 13 13 13 13 13 12 12 12 12 12 12 12 12 12 12 12 12
13 13 13 13 13 13 13 13 13 13 13 13 13 13 13 13 13 13 13 13 13 13 13 13 13 13 13 13 13 12 12 12 12 12 12 11 11 11 11 11 11 11 11 11
12 12 12 12 12 13 13 13 13 13 13 13 13 13 13 13 13 13 13 13 12 12 12 12 12 12 12 12 12 12 12 12 12 11 11 11 11 11 11 10 10 10 10 10
13 13 13 13 12 12 12 13 13 13 13 13 13 13 12 12 12 12 12 12 12 12 12 12 12 12 12 12 12 11 11 11 11 11 11 11 10 10 10 10 10 10 10 10
13 13 12 12 12 12 12 12 12 12 12 12 12 12 12 12 12 12 12 12 12 11 11 11 11 11 11 11 11 11 11 11 11 11 11 10 10 10 10 10 10 10 10 10
12 12 12 12 12 12 12 12 12 12 12 12 12 12 12 12 12 12 12 11 11 11 11 11 11 11 11 11 11 11 11 11 11 10 10 10 10 10 10 10 10 10 9 9
12 12 12 12 12 12 12 12 12 12 12 12 12 11 11 11 11 11 11 11 11 11 11 10 10 10 10 10 11 11 11 10 10 10 10 10 10 10 9 9 9 9 9 9
12 11 11 11 11 11 11 11 11 11 12 11 11 11 11 11 11 11 11 10 10 10 10 10 10 10 10 10 10 10 10 10 10 10 10 10 10 10 9 9 9 9 9 9
12 11 11 11 11 11 11 11 11 11 11 11 11 11 11 11 10 10 10 10 10 10 10 10 10 10 10 10 10 10 10 10 10 10 10 9 9 9 9 9 9 9 9 9
11 11 11 11 11 11 11 11 11 11 11 11 11 11 10 10 10 10 10 10 10 10 10 10 10 10 10 10 10 10 10 9 9 9 9 9 9 9 9 9 8 8 8 8
11 11 11 11 11 11 11 11 11 11 11 11 11 10 10 10 10 10 10 10 10 10 9 9 9 10 10 10 10 10 9 9 9 9 9 9 9 9 8 8 8 8 8 8
11 11 11 11 11 11 11 11 11 11 10 10 10 10 10 10 10 10 10 10 10 9 9 9 9 9 9 9 9 9 9 9 9 9 9 9 8 8 8 8 8 8 8 8
11 11 11 11 11 11 11 11 11 11 11 10 10 10 10 10 10 10 10 9 9 9 9 9 9 9 9 9 9 9 9 9 9 9 8 8 8 8 8 8 8 8 8 8
Wind_Speed
5 4 2 3 5 4 5 7 8 8 7 8 6 3 1 0 1 2 2 3 3 4 3 4 5 5 5 5 5 5 5 5 5 5 5 5 5 6 5 5 5 5 4 4
3 3 2 3 5 4 4 4 5 4 6 5 2 1 1 1 1 2 2 2 3 3 3 4 5 5 5 5 4 4 5 6 5 5 5 5 6 5 5 5 5 4 5 5
3 4 2 4 4 3 2 2 4 6 6 2 2 2 3 2 2 1 1 1 2 2 3 4 5 5 6 5 4 4 4 3 3 3 4 4 4 3 4 4 4 4 5 5
1 2 4 7 3 2 2 1 1 2 2 3 3 1 1 1 2 1 1 1 1 2 2 3 4 4 4 5 5 5 5 4 4 4 4 3 3 4 4 3 4 4 4 5
2 2 5 5 2 1 2 2 2 2 3 4 4 4 4 2 1 2 2 2 2 3 3 2 2 4 4 4 4 5 5 5 5 4 4 4 4 4 4 3 3 3 4 5
3 3 6 6 4 3 2 2 2 3 4 3 3 1 3 2 0 1 1 1 1 1 2 2 1 3 4 4 3 4 4 4 4 4 4 5 5 5 4 3 4 4 4 5
3 4 6 5 6 2 3 6 3 3 3 3 3 4 4 3 2 2 2 2 0 1 2 2 2 4 3 3 3 3 3 3 3 3 4 5 5 4 3 3 3 3 4 4
3 3 6 4 2 2 5 3 2 2 2 1 1 1 1 2 2 2 2 2 2 2 2 1 2 4 3 2 2 1 1 1 2 2 3 2 3 3 3 3 3 4 4 4
6 6 6 4 4 4 2 2 2 2 2 2 1 1 2 3 3 2 3 2 2 2 1 0 1 3 4 3 2 2 1 1 1 2 2 2 2 3 3 3 3 4 4 5
2 5 6 5 4 4 2 2 2 2 2 2 2 2 1 2 2 2 1 1 2 2 2 1 1 2 3 4 3 2 2 2 2 2 2 2 2 3 3 4 4 4 5 5
3 5 5 5 4 4 3 2 2 1 1 2 2 1 1 1 2 1 1 0 1 2 2 3 2 2 3 3 3 3 3 3 3 3 3 3 3 3 4 5 6 6 6 6
6 6 4 5 5 4 3 2 2 1 2 1 1 2 2 2 2 1 1 1 1 2 2 3 2 3 3 3 3 4 4 4 4 3 3 3 3 4 4 6 7 8 9 8
6 5 5 5 4 3 3 3 3 2 1 2 2 2 2 2 3 2 1 1 2 3 3 3 3 4 4 4 3 4 5 5 4 4 4 4 4 3 4 4 4 6 7 8
4 2 2 3 4 4 3 3 2 2 2 2 3 3 2 2 2 2 3 3 3 2 2 3 3 4 4 3 3 4 5 6 5 5 5 5 5 5 5 5 5 4 4 5
4 3 4 3 3 3 2 1 1 2 3 3 3 2 2 2 3 4 4 3 2 2 3 3 3 5 4 3 3 4 5 5 5 5 5 5 5 5 5 5 5 4 3 3
3 2 2 2 3 3 2 1 2 4 3 3 3 4 3 3 3 3 3 3 2 4 5 4 5 6 4 3 3 4 4 6 6 5 5 4 4 4 5 5 5 4 5 4
2 2 2 2 3 3 3 3 3 4 3 4 5 4 3 2 3 4 4 4 3 5 5 5 6 5 4 4 4 4 4 5 6 5 5 5 5 5 5 5 5 5 5 5
5 6 6 5 4 3 3 3 3 3 4 4 3 3 3 3 5 5 5 4 4 5 5 5 5 4 4 4 3 3 4 4 4 4 4 4 5 5 4 5 5 5 4 4
2 2 3 3 4 3 3 3 4 3 3 3 2 4 4 5 5 5 4 3 4 6 6 4 5 4 4 5 4 3 4 4 4 4 4 4 4 4 4 4 5 5 5 4
0 1 1 1 1 1 2 2 2 3 3 2 2 3 4 5 4 4 3 4 5 5 4 5 5 4 4 4 5 3 3 4 4 3 3 4 4 4 4 4 5 5 4 4
1 1 1 0 1 1 1 2 2 3 3 2 2 4 5 5 4 3 2 4 5 4 4 4 4 4 4 4 4 3 3 3 3 3 3 3 4 4 4 4 4 4 4 4
0 0 0 0 1 2 3 2 2 3 3 3 3 3 3 3 3 3 2 2 4 5 4 3 3 4 4 4 2 2 2 2 2 2 2 2 3 3 3 3 3 3 3 3
1 1 1 1 1 2 3 3 2 2 2 2 2 2 2 2 2 1 3 3 3 4 3 3 4 5 5 2 1 1 1 1 1 2 2 2 2 2 2 2 2 2 2 3
1 1 1 1 1 1 2 3 3 2 2 2 2 2 1 1 2 2 1 3 4 4 3 3 5 5 3 1 1 1 1 1 1 1 1 1 1 1 2 2 2 2 3 3
1 1 0 0 1 2 3 3 3 3 3 2 3 2 1 1 1 2 2 3 4 4 3 4 4 4 3 2 2 1 1 1 1 1 1 1 1 1 2 2 2 3 3 3
1 1 1 2 2 2 2 1 1 2 2 2 3 3 2 2 1 2 2 3 3 3 3 3 3 3 3 2 2 2 2 2 2 1 1 1 2 2 2 2 3 2 2 2
1 1 1 1 1 2 1 1 1 2 2 1 2 3 2 2 2 2 2 2 2 2 2 2 2 2 3 3 2 2 2 2 2 2 2 2 2 2 2 2 2 2 2 2
Wind_Direction
246 250 229 243 258 224 199 194 196 224 221 243 242 220 231 281 96 91 86 96 115 134 139 134 136 144 153 158 160 159 159 176 189 196 205 229 233 227 215 213 218 213 209 213
286 278 274 270 277 246 229 208 203 199 244 245 208 121 119 131 117 106 96 97 102 119 138 151 151 152 155 158 160 160 176 191 193 195 198 211 225 225 218 213 213 209 211 213
269 305 7 266 264 221 224 237 193 215 229 187 149 169 187 164 141 153 169 136 121 134 155 165 160 160 161 160 154 165 181 186 195 197 202 216 227 227 229 221 215 216 218 217
239 31 223 244 275 181 168 304 271 199 182 153 136 125 19 103 140 190 232 163 152 162 168 177 160 155 163 158 167 174 176 191 201 195 199 205 209 225 232 225 222 222 225 226
144 203 266 285 275 177 179 300 333 148 124 110 100 58 0 341 149 194 223 213 208 190 165 167 161 154 159 166 170 178 189 204 208 200 203 206 220 231 232 223 225 224 231 228
146 173 234 253 306 320 110 273 264 150 142 126 93 90 267 275 243 259 282 256 216 128 107 142 147 135 146 157 163 194 207 213 210 203 209 220 228 229 223 217 227 229 236 234
178 213 257 278 312 341 186 237 236 209 181 160 187 216 233 240 251 251 262 266 175 122 145 189 158 132 137 152 193 215 206 194 193 204 220 222 224 221 214 216 222 234 250 258
162 196 255 308 4 192 231 263 232 219 228 194 211 248 241 233 240 256 270 252 191 164 186 197 153 142 150 195 226 199 176 194 218 219 236 241 216 225 225 221 231 242 250 266
196 219 260 280 254 263 235 235 262 236 246 167 168 280 297 294 266 246 243 224 196 168 166 205 175 166 178 215 208 169 146 216 260 269 269 251 226 232 238 233 237 248 250 257
258 269 280 291 297 302 276 243 262 231 216 182 191 226 268 282 273 265 256 203 168 151 159 229 234 209 213 215 196 177 202 231 240 250 271 270 251 238 239 241 242 244 246 251
256 273 305 306 298 297 309 336 351 330 256 198 184 231 256 294 301 290 285 275 142 162 190 229 245 244 236 217 187 193 214 229 238 240 243 260 269 255 241 243 235 233 240 239
234 237 227 264 280 284 281 290 297 324 338 295 203 226 251 274 280 276 259 235 172 194 211 233 234 249 256 241 204 198 222 231 235 237 241 245 258 288 284 258 250 237 234 235
235 246 235 252 271 266 259 273 290 284 271 284 285 243 231 262 277 274 278 257 234 228 229 235 233 242 254 251 222 217 228 236 238 237 238 243 247 255 280 293 278 258 245 239
237 229 272 269 258 255 251 262 276 289 299 278 272 271 245 245 266 274 270 259 252 253 255 251 251 261 259 246 236 242 244 245 243 241 239 240 244 248 249 255 270 280 276 251
260 230 228 263 287 291 256 229 258 283 293 295 283 267 242 234 245 258 260 256 259 273 274 267 268 273 268 249 240 247 251 251 250 248 245 242 244 250 253 252 252 259 270 267
281 282 232 237 262 279 283 240 233 249 247 250 258 253 247 243 253 264 267 264 257 274 275 271 270 270 266 255 256 260 256 250 250 246 244 242 241 242 245 246 248 251 254 254
222 256 227 231 249 264 266 252 239 241 245 249 253 257 264 270 285 281 279 278 267 267 270 268 270 273 263 252 252 261 263 260 257 252 243 239 237 235 237 241 246 250 253 247
209 216 216 211 219 241 267 268 254 246 249 253 260 269 271 266 269 271 275 282 286 289 283 273 271 277 274 267 259 258 259 260 255 249 245 243 241 239 239 242 244 246 252 244
216 209 213 213 218 217 229 247 256 258 261 258 254 260 265 268 268 271 278 282 283 289 291 288 287 287 282 275 268 254 254 259 258 250 243 240 243 244 241 241 243 243 238 235
202 177 180 224 250 207 226 252 265 276 275 268 265 276 283 281 277 279 279 276 271 270 281 291 295 287 277 272 274 255 249 250 251 251 247 238 240 247 248 248 248 245 241 235
119 123 121 124 317 303 282 273 267 274 284 285 263 271 279 287 288 277 276 295 301 306 308 300 298 293 287 285 285 268 256 249 249 250 249 244 241 245 252 254 252 247 243 238
235 119 191 105 353 328 321 309 280 278 295 297 290 298 305 305 308 312 297 274 293 313 325 317 309 303 306 302 288 280 269 253 256 260 257 248 239 242 251 257 257 249 240 235
266 260 250 253 277 306 325 325 313 304 301 299 300 302 300 297 296 298 317 316 315 325 331 324 325 330 334 337 333 326 312 281 264 258 256 255 249 243 245 252 259 256 249 242
272 274 265 280 333 349 325 315 316 314 309 306 303 296 294 325 341 333 295 314 325 329 335 327 331 340 352 14 14 12 348 308 290 284 272 264 261 250 251 252 253 255 251 250
245 252 273 138 250 260 272 299 326 339 347 345 342 340 329 274 272 314 327 327 331 337 338 337 344 350 5 15 11 1 344 323 312 306 301 292 275 266 264 262 259 257 257 252
247 239 239 237 236 249 261 275 301 305 317 331 331 334 341 338 325 322 329 332 336 334 337 343 351 360 10 12 9 352 336 332 328 320 305 289 272 264 262 263 263 257 253 248
332 314 300 306 293 264 258 248 255 280 277 265 292 311 323 334 347 348 345 343 341 342 342 341 344 349 357 4 4 360 352 345 343 340 327 309 295 278 272 271 274 268 261 259
Height
1475 1470 1469 1469 1467 1467 1471 1474 1479 1474 1473 1465 1460 1461 1461 1460 1460 1460 1460 1461 1462 1464 1466 1468 1471 1474 1477 1479 1483 1485 1487 1490 1492 1495 1497 1499 1500 1501 1501 1502 1503 1504 1504 1505
1475 1469 1468 1468 1465 1464 1464 1465 1467 1466 1467 1459 1458 1459 1460 1460 1460 1460 1460 1461 1462 1464 1466 1468 1469 1472 1474 1477 1479 1482 1485 1486 1489 1491 1493 1494 1496 1497 1497 1498 1499 1499 1500 1501
1483 1473 1470 1475 1465 1463 1462 1460 1462 1464 1461 1457 1458 1458 1459 1459 1460 1461 1461 1462 1462 1464 1465 1467 1468 1470 1473 1475 1477 1480 1482 1483 1486 1487 1488 1490 1492 1492 1492 1493 1494 1494 1495 1496
1488 1479 1485 1471 1458 1458 1460 1459 1457 1457 1456 1456 1457 1459 1459 1459 1460 1461 1461 1461 1462 1463 1464 1466 1466 1468 1470 1473 1475 1477 1478 1479 1482 1484 1485 1486 1487 1487 1487 1488 1489 1488 1489 1490
1491 1488 1479 1466 1459 1459 1461 1462 1457 1457 1456 1457 1458 1458 1459 1459 1459 1460 1460 1460 1461 1462 1462 1464 1465 1466 1468 1471 1472 1473 1474 1477 1479 1479 1480 1482 1482 1483 1483 1483 1484 1484 1485 1486
1489 1486 1485 1468 1457 1455 1459 1464 1457 1456 1456 1457 1457 1462 1460 1458 1459 1459 1459 1459 1460 1461 1461 1463 1463 1465 1466 1468 1469 1470 1472 1473 1475 1475 1477 1477 1478 1478 1479 1479 1479 1480 1480 1481
1486 1484 1475 1461 1457 1456 1467 1463 1456 1455 1454 1455 1456 1457 1457 1456 1457 1458 1458 1458 1459 1460 1461 1462 1463 1463 1464 1465 1466 1467 1469 1470 1471 1472 1473 1473 1473 1474 1474 1474 1474 1475 1476 1475
1485 1484 1477 1459 1457 1460 1459 1454 1453 1454 1454 1454 1454 1454 1455 1454 1454 1455 1456 1456 1457 1458 1459 1460 1461 1461 1462 1463 1464 1465 1466 1467 1468 1468 1469 1470 1470 1470 1470 1470 1470 1469 1469 1469
1475 1473 1463 1459 1458 1456 1454 1454 1453 1453 1453 1454 1453 1453 1454 1453 1453 1454 1455 1455 1455 1456 1457 1458 1459 1460 1460 1461 1462 1462 1463 1464 1465 1465 1465 1466 1465 1465 1465 1465 1465 1465 1465 1465
1470 1464 1460 1457 1456 1455 1454 1453 1453 1453 1453 1453 1453 1452 1452 1452 1452 1452 1453 1453 1453 1454 1455 1456 1456 1458 1459 1459 1459 1460 1460 1460 1461 1461 1461 1462 1462 1462 1462 1461 1461 1460 1460 1460
1467 1462 1458 1455 1455 1454 1453 1452 1452 1452 1452 1452 1452 1452 1452 1451 1450 1450 1451 1451 1451 1452 1452 1453 1454 1456 1457 1457 1456 1456 1457 1457 1457 1457 1457 1457 1457 1457 1457 1457 1458 1457 1456 1456
1462 1457 1457 1454 1452 1452 1452 1451 1451 1450 1450 1451 1451 1451 1450 1450 1449 1449 1449 1449 1449 1449 1450 1451 1452 1452 1453 1453 1453 1452 1452 1452 1453 1452 1452 1452 1452 1451 1451 1452 1452 1452 1451 1451
1454 1453 1452 1451 1451 1451 1451 1451 1450 1450 1449 1449 1449 1449 1449 1448 1448 1447 1447 1447 1446 1446 1447 1447 1448 1448 1448 1448 1448 1448 1447 1447 1447 1447 1447 1447 1447 1446 1445 1446 1446 1446 1445 1445
1451 1451 1450 1449 1449 1449 1450 1450 1450 1449 1449 1448 1448 1447 1447 1447 1447 1446 1446 1445 1445 1444 1443 1443 1443 1444 1444 1444 1443 1443 1442 1442 1441 1441 1441 1441 1441 1441 1440 1440 1439 1439 1439 1439
1448 1448 1448 1448 1447 1447 1447 1447 1447 1447 1447 1447 1446 1445 1445 1445 1444 1444 1444 1443 1442 1441 1440 1440 1439 1439 1440 1439 1438 1438 1437 1437 1436 1436 1436 1435 1435 1435 1435 1435 1434 1433 1433 1434
1445 1445 1445 1445 1445 1445 1445 1445 1445 1445 1445 1445 1444 1444 1443 1443 1442 1441 1441 1440 1438 1437 1437 1436 1435 1435 1435 1434 1434 1433 1432 1432 1431 1431 1430 1430 1430 1430 1429 1429 1429 1428 1428 1428
1443 1443 1443 1443 1443 1443 1443 1443 1443 1443 1442 1442 1441 1441 1440 1439 1438 1438 1437 1436 1435 1434 1433 1433 1431 1431 1430 1429 1429 1428 1427 1426 1426 1425 1425 1424 1424 1424 1424 1424 1424 1424 1424 1424
1440 1440 1440 1441 1441 1441 1440 1441 1441 1441 1440 1439 1439 1439 1438 1436 1435 1434 1434 1433 1432 1431 1430 1429 1427 1426 1425 1424 1423 1423 1422 1421 1420 1420 1419 1419 1419 1419 1419 1419 1419 1419 1419 1420
1437 1438 1438 1439 1439 1439 1439 1439 1438 1438 1438 1437 1436 1436 1434 1433 1432 1431 1430 1429 1428 1426 1425 1424 1423 1421 1420 1420 1420 1419 1418 1417 1415 1415 1415 1414 1414 1414 1414 1414 1415 1415 1415 1415
1436 1436 1437 1437 1437 1437 1437 1437 1436 1436 1436 1435 1434 1433 1431 1430 1429 1428 1427 1426 1425 1424 1422 1421 1419 1417 1417 1416 1415 1414 1413 1412 1411 1410 1410 1409 1409 1410 1410 1410 1410 1411 1411 1411
1435 1435 1435 1435 1435 1435 1435 1435 1435 1434 1433 1432 1431 1430 1429 1427 1427 1426 1424 1423 1422 1421 1419 1418 1416 1414 1414 1413 1412 1410 1410 1409 1408 1407 1407 1406 1406 1406 1406 1406 1407 1407 1407 1407
1434 1434 1434 1434 1434 1434 1434 1433 1433 1432 1431 1430 1429 1428 1426 1425 1424 1423 1422 1421 1420 1418 1416 1415 1413 1412 1411 1410 1409 1408 1407 1406 1406 1405 1404 1404 1404 1403 1403 1403 1403 1403 1403 1403
1434 1434 1434 1434 1434 1434 1433 1432 1431 1431 1430 1428 1427 1426 1425 1424 1423 1421 1420 1419 1418 1417 1415 1413 1412 1411 1410 1408 1407 1406 1405 1404 1404 1403 1403 1402 1402 1401 1401 1401 1401 1401 1400 1400
1433 1433 1433 1434 1434 1433 1432 1432 1431 1430 1429 1428 1427 1426 1424 1423 1422 1420 1419 1418 1417 1416 1414 1413 1411 1410 1408 1407 1406 1405 1404 1403 1402 1402 1401 1401 1400 1400 1400 1399 1399 1398 1398 1397
1433 1433 1433 1433 1433 1433 1432 1431 1430 1429 1429 1427 1426 1425 1424 1423 1421 1420 1419 1418 1416 1415 1414 1413 1411 1409 1408 1406 1405 1404 1403 1403 1402 1401 1400 1399 1399 1398 1398 1397 1397 1396 1396 1395
1433 1433 1432 1432 1432 1432 1432 1431 1430 1429 1428 1427 1426 1425 1424 1423 1422 1421 1420 1418 1417 1416 1415 1413 1412 1410 1408 1407 1405 1404 1404 1403 1402 1401 1400 1399 1399 1398 1397 1396 1396 1395 1394 1393
1433 1432 1432 1432 1432 1432 1431 1431 1430 1429 1428 1427 1426 1425 1424 1423 1422 1421 1420 1419 1418 1416 1415 1414 1412 1411 1409 1407 1406 1405 1404 1403 1402 1401 1400 1399 1398 1397 1396 1395 1394 1393 1392 1391